Weather History for Holdrege, NE

Change the Weather History Date:

Sunday, January 20, 2013

  Actual Average Record
Temperature  
Mean Temperature 26 °F -  
Max Temperature 33 °F 36 °F 67 °F (1964)
Min Temperature 18 °F 16 °F -10 °F (1962)
Degree Days  
Heating Degree Days 39    
Moisture  
Dew Point 19 °F    
Average Humidity 76    
Maximum Humidity 90    
Minimum Humidity 59    
Precipitation  
Precipitation 0.00 in - - ()
Sea Level Pressure  
Sea Level Pressure 30.29 in    
Wind  
Wind Speed 7 mph (ENE)    
Max Wind Speed 18 mph    
Max Gust Speed -    
Visibility 10 miles    
Events      
Averages and records for this station are not official NWS values.
T = Trace of Precipitation, MM = Missing Value Source: NWS Daily Summary

Daily Weather History Graph

Daily Weather History Graph

Search for Another Location

Airport:

Trip Planner

Search our weather history database for the weather conditions in past years. The results will help you decide how hot, cold, wet, or windy it might be!

Date:

Astronomy

Jan. 20, 2013 Rise Set
Actual Time 7:55 AM CST 5:41 PM CST
Civil Twilight 7:26 AM CST 6:11 PM CST
Nautical Twilight 6:52 AM CST 6:44 PM CST
Astronomical Twilight 6:20 AM CST 7:16 PM CST
Moon 12:43 PM CST (1/20) 2:29 AM CST (1/20)
Length of Visible Light 10h 44m
Length of Day
9h 45m
Waxing Gibbous, 66% of the Moon is Illuminated
Jan 20
Waxing Gibbous
Jan 26
Full
Feb 3
Last Quarter
Feb 10
New
Feb 17
First Quarter

Hourly Weather History & Observations

Time (CST) Temp. Windchill Dew Point Humidity Pressure Visibility Wind Dir Wind Speed Gust Speed Precip Events Conditions
12:15 AM 31.3 °F 22.1 °F 27.3 °F 85% 30.27 in 10.0 mi ENE 11.5 mph - N/A   Clear
12:35 AM 30.4 °F 20.5 °F 27.5 °F 89% 30.26 in 10.0 mi NE 12.7 mph - N/A   Clear
12:55 AM 29.5 °F 20.4 °F 26.8 °F 90% 30.24 in 10.0 mi ENE 10.4 mph - N/A   Clear
1:15 AM 28.4 °F 19.1 °F 25.5 °F 89% 30.25 in 10.0 mi ENE 10.4 mph - N/A   Clear
1:35 AM 28.0 °F 18.1 °F 22.5 °F 80% 30.26 in 10.0 mi ENE 11.5 mph - N/A   Clear
1:55 AM 27.5 °F 20.2 °F 21.4 °F 78% 30.26 in 10.0 mi ENE 6.9 mph - N/A   Clear
2:15 AM 27.1 °F 20.7 °F 21.6 °F 80% 30.25 in 10.0 mi East 5.8 mph - N/A   Clear
2:35 AM 26.6 °F 20.0 °F 21.4 °F 81% 30.25 in 10.0 mi East 5.8 mph - N/A   Clear
2:55 AM 26.1 °F 18.4 °F 19.8 °F 77% 30.25 in 10.0 mi East 6.9 mph - N/A   Clear
3:15 AM 25.7 °F 18.0 °F 17.2 °F 70% 30.25 in 10.0 mi East 6.9 mph - N/A   Clear
3:35 AM 25.0 °F 19.3 °F 17.1 °F 72% 30.25 in 10.0 mi East 4.6 mph - N/A   Clear
3:55 AM 24.8 °F 17.9 °F 17.6 °F 74% 30.24 in 10.0 mi ENE 5.8 mph - N/A   Clear
4:15 AM 23.9 °F - 18.3 °F 79% 30.23 in 10.0 mi Calm Calm - N/A   Clear
4:35 AM 23.7 °F - 18.7 °F 81% 30.23 in 10.0 mi Calm Calm - N/A   Clear
4:55 AM 23.9 °F 19.5 °F 18.9 °F 81% 30.22 in 10.0 mi ESE 3.5 mph - N/A   Clear
5:15 AM 23.5 °F 16.4 °F 19.0 °F 83% 30.21 in 10.0 mi SE 5.8 mph - N/A   Clear
5:35 AM 23.0 °F 18.4 °F 19.6 °F 87% 30.22 in 10.0 mi SSE 3.5 mph - N/A   Clear
5:55 AM 22.6 °F 15.3 °F 19.4 °F 87% 30.21 in 10.0 mi SE 5.8 mph - N/A   Clear
6:15 AM 22.8 °F 14.5 °F 19.6 °F 87% 30.21 in 10.0 mi SE 6.9 mph - N/A   Clear
6:35 AM 23.0 °F 15.8 °F 19.8 °F 87% 30.22 in 10.0 mi SE 5.8 mph - N/A   Scattered Clouds
6:55 AM 22.5 °F 16.3 °F 19.2 °F 87% 30.22 in 10.0 mi SE 4.6 mph - N/A   Scattered Clouds
7:15 AM 22.1 °F 14.7 °F 19.0 °F 88% 30.22 in 10.0 mi SE 5.8 mph - N/A   Clear
7:35 AM 21.2 °F 13.6 °F 17.6 °F 86% 30.22 in 10.0 mi SSE 5.8 mph - N/A   Clear
7:55 AM 22.1 °F 14.7 °F 17.6 °F 83% 30.23 in 10.0 mi South 5.8 mph - N/A   Clear
8:15 AM 22.1 °F 15.9 °F 17.4 °F 82% 30.23 in 10.0 mi SSE 4.6 mph - N/A   Clear
8:35 AM 22.5 °F 14.1 °F 17.6 °F 82% 30.22 in 10.0 mi SSE 6.9 mph - N/A   Clear
8:55 AM 23.4 °F 14.3 °F 17.2 °F 77% 30.23 in 10.0 mi SSE 8.1 mph - N/A   Clear
9:15 AM 23.9 °F 15.0 °F 16.7 °F 74% 30.23 in 10.0 mi SE 8.1 mph - N/A   Clear
9:35 AM 24.4 °F 18.6 °F 16.7 °F 72% 30.24 in 10.0 mi SE 4.6 mph - N/A   Clear
9:55 AM 24.8 °F 19.1 °F 17.4 °F 74% 30.27 in 10.0 mi ESE 4.6 mph - N/A   Clear
10:15 AM 25.7 °F 20.1 °F 17.8 °F 72% 30.27 in 10.0 mi SSE 4.6 mph - N/A   Clear
10:35 AM 26.1 °F 20.5 °F 18.0 °F 71% 30.28 in 10.0 mi SSE 4.6 mph - N/A   Clear
10:55 AM 26.6 °F - 18.1 °F 70% 30.29 in 10.0 mi Calm Calm - N/A   Clear
11:15 AM 27.5 °F - 18.5 °F 69% 30.29 in 10.0 mi Calm Calm - N/A   Clear
11:35 AM 28.8 °F - 19.2 °F 68% 30.30 in 10.0 mi Calm Calm - N/A   Scattered Clouds
11:55 AM 28.9 °F 25.2 °F 19.2 °F 67% 30.30 in 10.0 mi North 3.5 mph - N/A   Scattered Clouds
12:15 PM 28.8 °F 25.0 °F 18.5 °F 66% 30.29 in 10.0 mi NE 3.5 mph - N/A   Mostly Cloudy
12:35 PM 30.2 °F 25.4 °F 18.7 °F 62% 30.28 in 10.0 mi NNW 4.6 mph - N/A   Mostly Cloudy
12:55 PM 30.0 °F 26.5 °F 18.3 °F 62% 30.27 in 10.0 mi North 3.5 mph - N/A   Scattered Clouds
1:15 PM 31.5 °F 25.8 °F 19.8 °F 62% 30.27 in 10.0 mi NNW 5.8 mph - N/A   Clear
1:35 PM 31.6 °F 25.1 °F 19.2 °F 60% 30.27 in 10.0 mi North 6.9 mph - N/A   Clear
1:55 PM 32.0 °F 27.5 °F 19.2 °F 59% 30.25 in 10.0 mi North 4.6 mph - N/A   Scattered Clouds
2:15 PM 32.0 °F 25.6 °F 19.8 °F 61% 30.26 in 10.0 mi NNE 6.9 mph - N/A   Mostly Cloudy
2:35 PM 32.0 °F 26.4 °F 21.2 °F 64% 30.27 in 10.0 mi NNE 5.8 mph - N/A   Overcast
2:55 PM 33.1 °F 26.9 °F 22.6 °F 66% 30.27 in 10.0 mi North 6.9 mph - N/A   Mostly Cloudy
3:15 PM 32.4 °F 25.3 °F 21.2 °F 63% 30.27 in 10.0 mi NE 8.1 mph - N/A   Overcast
3:35 PM 32.2 °F 23.8 °F 20.7 °F 63% 30.28 in 10.0 mi NE 10.4 mph - N/A   Overcast
3:55 PM 31.3 °F 19.5 °F 19.9 °F 63% 30.29 in 10.0 mi NE 18.4 mph - N/A   Overcast
4:15 PM 30.2 °F 18.5 °F 19.9 °F 66% 30.30 in 10.0 mi NE 17.3 mph - N/A   Overcast
4:35 PM 28.8 °F 16.2 °F 18.1 °F 65% 30.31 in 10.0 mi NE 18.4 mph - N/A   Overcast
4:55 PM 27.5 °F 15.4 °F 16.3 °F 63% 30.32 in 10.0 mi NNE 16.1 mph - N/A   Overcast
5:15 PM 26.8 °F 16.5 °F 16.3 °F 65% 30.33 in 10.0 mi NNE 11.5 mph - N/A   Overcast
5:35 PM 26.1 °F 16.8 °F 16.9 °F 68% 30.34 in 10.0 mi NNE 9.2 mph - N/A   Scattered Clouds
5:55 PM 25.7 °F 15.1 °F 18.0 °F 73% 30.34 in 10.0 mi NNE 11.5 mph - N/A   Clear
6:15 PM 25.0 °F 14.2 °F 17.8 °F 74% 30.33 in 10.0 mi NNE 11.5 mph - N/A   Clear
6:35 PM 24.6 °F 14.4 °F 17.2 °F 74% 30.34 in 10.0 mi NNE 10.4 mph - N/A   Clear
6:55 PM 23.7 °F 14.7 °F 17.1 °F 76% 30.34 in 10.0 mi NNE 8.1 mph - N/A   Clear
7:15 PM 23.4 °F 14.3 °F 17.1 °F 77% 30.35 in 10.0 mi NNE 8.1 mph - N/A   Clear
7:35 PM 22.3 °F 17.6 °F 16.2 °F 77% 30.35 in 10.0 mi NNE 3.5 mph - N/A   Clear
7:55 PM 22.1 °F 15.9 °F 16.5 °F 79% 30.36 in 10.0 mi NNE 4.6 mph - N/A   Clear
8:15 PM 21.9 °F 15.7 °F 16.5 °F 80% 30.35 in 10.0 mi NE 4.6 mph - N/A   Clear
8:35 PM 21.9 °F 15.7 °F 17.1 °F 82% 30.34 in 10.0 mi NE 4.6 mph - N/A   Clear
8:55 PM 21.7 °F 15.5 °F 16.7 °F 81% 30.34 in 10.0 mi NE 4.6 mph - N/A   Clear
9:15 PM 22.1 °F 15.9 °F 16.7 °F 80% 30.35 in 10.0 mi NE 4.6 mph - N/A   Clear
9:35 PM 22.1 °F - 16.3 °F 79% 30.37 in 10.0 mi Calm Calm - N/A   Clear
9:55 PM 21.2 °F 14.9 °F 15.8 °F 80% 30.38 in 10.0 mi West 4.6 mph - N/A   Clear
10:15 PM 21.0 °F 14.6 °F 15.8 °F 80% 30.39 in 10.0 mi West 4.6 mph - N/A   Clear
10:35 PM 20.7 °F 14.2 °F 16.0 °F 82% 30.39 in 10.0 mi West 4.6 mph - N/A   Clear
10:55 PM 20.1 °F 15.2 °F 16.5 °F 86% 30.39 in 10.0 mi West 3.5 mph - N/A   Clear
11:15 PM 20.1 °F 13.6 °F 16.2 °F 85% 30.38 in 10.0 mi West 4.6 mph - N/A   Clear
11:35 PM 19.4 °F 12.8 °F 15.8 °F 86% 30.38 in 10.0 mi West 4.6 mph - N/A   Scattered Clouds
11:55 PM 18.9 °F 10.8 °F 14.9 °F 85% 30.38 in 10.0 mi West 5.8 mph - N/A   Scattered Clouds